Location: Sungai Anya
(2.6167°N, 114.0500°E)
Time: 12:46:12
(UTC+00:00)

CZ-4B R/B - Pass Details

Date: 19 October 2021
Orbit: 381 x 445 km, 97.6° (Epoch: 29 November)

Event Time Altitude Azimuth Distance (km) Brightness Sun altitude
Exits shadow 11:31:45 16° 352° (N) 1,263 3.6 -20.9°
Maximum altitude 11:34:15 48° 281° (WNW) 596 2.3 -21.5°
Drops below altitude 10° 11:37:30 10° 206° (SSW) 1,567 4.6 -22.3°
Sets 11:39:34 0° 200° (SSW) 2,433 5.5 -22.8°
